TimeMDT,TemperatureF,Dew PointF,Humidity,Sea Level PressureIn,VisibilityMPH,Wind Direction,Wind SpeedMPH,Gust SpeedMPH,PrecipitationIn,Events,Conditions,WindDirDegrees,DateUTC
12:15 AM,32.0,30.2,93,29.93,10.0,NNE,3.5,-,N/A,,Scattered Clouds,30,2013-10-30 06:15:00
12:35 AM,32.0,30.2,93,29.94,10.0,SE,4.6,-,N/A,,Scattered Clouds,140,2013-10-30 06:35:00
12:55 AM,32.0,28.4,87,29.94,10.0,Calm,Calm,-,N/A,,Clear,0,2013-10-30 06:55:00
1:15 AM,32.0,28.4,87,29.94,10.0,East,4.6,-,N/A,,Clear,80,2013-10-30 07:15:00
1:35 AM,30.2,28.4,93,29.94,10.0,East,3.5,-,N/A,,Clear,100,2013-10-30 07:35:00
1:55 AM,28.4,26.6,93,29.95,10.0,East,4.6,-,N/A,,Scattered Clouds,100,2013-10-30 07:55:00
2:15 AM,30.2,28.4,93,29.95,10.0,ESE,5.8,-,N/A,,Overcast,120,2013-10-30 08:15:00
2:35 AM,32.0,30.2,93,29.95,10.0,Calm,Calm,-,N/A,,Overcast,0,2013-10-30 08:35:00
2:55 AM,32.0,30.2,93,29.96,10.0,West,3.5,-,N/A,,Overcast,280,2013-10-30 08:55:00
3:15 AM,32.0,30.2,93,29.96,10.0,Calm,Calm,-,N/A,,Overcast,0,2013-10-30 09:15:00
3:35 AM,32.0,30.2,93,29.96,10.0,Calm,Calm,-,N/A,,Overcast,0,2013-10-30 09:35:00
3:55 AM,32.0,30.2,93,29.96,10.0,SE,3.5,-,N/A,,Overcast,130,2013-10-30 09:55:00
4:15 AM,32.0,30.2,93,29.96,10.0,Calm,Calm,-,N/A,,Overcast,0,2013-10-30 10:15:00
4:35 AM,32.0,30.2,93,29.96,10.0,Calm,Calm,-,N/A,,Overcast,0,2013-10-30 10:35:00
4:55 AM,32.0,30.2,93,29.96,10.0,Calm,Calm,-,N/A,,Mostly Cloudy,0,2013-10-30 10:55:00
5:15 AM,32.0,30.2,93,29.96,10.0,SE,3.5,-,N/A,,Overcast,140,2013-10-30 11:15:00
5:35 AM,32.0,30.2,93,29.96,10.0,SE,4.6,-,N/A,,Overcast,130,2013-10-30 11:35:00
5:55 AM,32.0,30.2,93,29.97,10.0,North,3.5,-,N/A,,Overcast,350,2013-10-30 11:55:00
6:15 AM,32.0,30.2,93,29.97,10.0,Calm,Calm,-,N/A,,Overcast,0,2013-10-30 12:15:00
6:35 AM,32.0,28.4,87,29.97,10.0,Calm,Calm,-,N/A,,Scattered Clouds,0,2013-10-30 12:35:00
6:55 AM,30.2,28.4,93,29.98,10.0,Calm,Calm,-,N/A,,Clear,0,2013-10-30 12:55:00
7:15 AM,30.2,28.4,93,29.98,10.0,Calm,Calm,-,N/A,,Mostly Cloudy,0,2013-10-30 13:15:00
7:35 AM,30.2,28.4,93,29.98,10.0,Calm,Calm,-,N/A,,Overcast,0,2013-10-30 13:35:00
7:55 AM,32.0,28.4,87,29.99,10.0,Calm,Calm,-,N/A,,Overcast,0,2013-10-30 13:55:00
8:15 AM,32.0,28.4,87,29.99,10.0,Calm,Calm,-,N/A,,Overcast,0,2013-10-30 14:15:00
8:35 AM,32.0,28.4,87,29.99,10.0,Calm,Calm,-,N/A,,Overcast,0,2013-10-30 14:35:00
8:55 AM,32.0,30.2,93,30.00,10.0,NW,3.5,-,N/A,,Overcast,320,2013-10-30 14:55:00
9:15 AM,32.0,30.2,93,30.00,10.0,Calm,Calm,-,N/A,,Overcast,0,2013-10-30 15:15:00
9:35 AM,33.8,30.2,87,30.01,10.0,Calm,Calm,-,N/A,,Overcast,0,2013-10-30 15:35:00
9:55 AM,33.8,30.2,87,30.01,10.0,Calm,Calm,-,N/A,,Overcast,0,2013-10-30 15:55:00
10:15 AM,33.8,30.2,87,30.02,3.0,Calm,Calm,-,N/A,Snow,Light Snow,0,2013-10-30 16:15:00
10:35 AM,33.8,32.0,93,30.01,5.0,NNE,3.5,-,N/A,Snow,Light Snow,30,2013-10-30 16:35:00
10:55 AM,35.6,32.0,87,30.02,10.0,Calm,Calm,-,N/A,,Overcast,0,2013-10-30 16:55:00
11:15 AM,35.6,32.0,87,30.02,10.0,Calm,Calm,-,N/A,,Overcast,0,2013-10-30 17:15:00
11:35 AM,35.6,32.0,87,30.01,10.0,Calm,Calm,-,N/A,,Overcast,0,2013-10-30 17:35:00
11:55 AM,35.6,32.0,87,30.01,10.0,Calm,Calm,-,N/A,,Overcast,0,2013-10-30 17:55:00
12:15 PM,37.4,32.0,81,30.01,10.0,Calm,Calm,-,N/A,,Overcast,0,2013-10-30 18:15:00
12:35 PM,37.4,32.0,81,30.01,10.0,Calm,Calm,-,N/A,,Overcast,0,2013-10-30 18:35:00
12:55 PM,37.4,32.0,81,30.00,10.0,Calm,Calm,-,N/A,,Overcast,0,2013-10-30 18:55:00
1:15 PM,41.0,32.0,70,29.99,10.0,Calm,Calm,-,N/A,,Overcast,0,2013-10-30 19:15:00
1:35 PM,41.0,32.0,70,29.99,10.0,Calm,Calm,-,N/A,,Mostly Cloudy,0,2013-10-30 19:35:00
1:55 PM,42.8,32.0,66,29.98,10.0,West,4.6,-,N/A,,Mostly Cloudy,270,2013-10-30 19:55:00
2:15 PM,41.0,32.0,70,29.97,10.0,SW,3.5,-,N/A,,Mostly Cloudy,230,2013-10-30 20:15:00
2:35 PM,41.0,32.0,70,29.97,10.0,SW,6.9,-,N/A,,Overcast,230,2013-10-30 20:35:00
2:55 PM,41.0,30.2,65,29.97,10.0,West,4.6,-,N/A,,Overcast,260,2013-10-30 20:55:00
3:15 PM,41.0,30.2,65,29.97,10.0,WNW,9.2,-,N/A,,Overcast,290,2013-10-30 21:15:00
3:35 PM,41.0,32.0,70,29.98,10.0,WNW,6.9,-,N/A,,Overcast,300,2013-10-30 21:35:00
3:55 PM,41.0,30.2,65,29.98,10.0,Calm,Calm,-,N/A,,Overcast,0,2013-10-30 21:55:00
4:15 PM,41.0,32.0,70,29.99,10.0,North,5.8,-,N/A,,Overcast,360,2013-10-30 22:15:00
4:35 PM,41.0,32.0,70,29.99,10.0,East,4.6,-,N/A,,Overcast,90,2013-10-30 22:35:00
4:55 PM,41.0,30.2,65,29.99,10.0,Calm,Calm,-,N/A,,Overcast,0,2013-10-30 22:55:00
5:15 PM,41.0,30.2,65,29.99,10.0,SE,4.6,-,N/A,,Overcast,140,2013-10-30 23:15:00
6:55 PM,39.2,30.2,70,30.01,10.0,NW,6.9,-,N/A,,Overcast,310,2013-10-31 00:55:00
7:15 PM,37.4,30.2,75,30.02,10.0,West,4.6,-,N/A,,Overcast,280,2013-10-31 01:15:00
7:35 PM,37.4,30.2,75,30.03,10.0,SSW,3.5,-,N/A,,Overcast,200,2013-10-31 01:35:00
7:55 PM,35.6,30.2,81,30.03,10.0,ESE,4.6,-,N/A,,Overcast,120,2013-10-31 01:55:00
8:15 PM,37.4,30.2,75,30.04,10.0,SE,4.6,-,N/A,,Overcast,130,2013-10-31 02:15:00
8:35 PM,37.4,30.2,75,30.04,10.0,ESE,4.6,-,N/A,,Overcast,110,2013-10-31 02:35:00
8:55 PM,35.6,30.2,81,30.05,10.0,ESE,5.8,-,N/A,,Overcast,120,2013-10-31 02:55:00
9:15 PM,35.6,30.2,81,30.05,10.0,ESE,4.6,-,N/A,,Overcast,110,2013-10-31 03:15:00
9:35 PM,35.6,30.2,81,30.05,10.0,ESE,4.6,-,N/A,,Overcast,120,2013-10-31 03:35:00
9:55 PM,35.6,30.2,81,30.05,10.0,East,5.8,-,N/A,,Overcast,100,2013-10-31 03:55:00
10:15 PM,35.6,30.2,81,30.06,10.0,ESE,4.6,-,N/A,,Overcast,120,2013-10-31 04:15:00
10:35 PM,35.6,30.2,81,30.06,10.0,East,4.6,-,N/A,,Overcast,90,2013-10-31 04:35:00
10:55 PM,35.6,30.2,81,30.06,10.0,East,4.6,-,N/A,,Overcast,100,2013-10-31 04:55:00
11:15 PM,35.6,30.2,81,30.07,10.0,Calm,Calm,-,N/A,,Overcast,0,2013-10-31 05:15:00
11:35 PM,35.6,30.2,81,30.07,10.0,SE,4.6,-,N/A,,Overcast,130,2013-10-31 05:35:00
11:55 PM,35.6,30.2,81,30.07,10.0,ESE,3.5,-,N/A,,Overcast,110,2013-10-31 05:55:00